When you browse on this site, cookies collect data to enhance your experience and personalize the content and advertising you see.
Visit our Privacy Policy to learn more. By continuing to use the site, you agree to this use of cookies and data.
  • In Hungary
  • List of Countries
  • For 7 days
  • Water Temperature
  • Weather Map
  • News
  • Weather Widgets
  • user-avatar
    Login

    Hourly Weather Ried im Innkreis

    Today, 8 December, Sunday

    Time Temperature Precipitation Wind Pressure Humidity
    00:00 +3°C° 0 mm 3 mps 725 mmHg 91%
    01:00 +4°C° 0 mm 2 mps 725 mmHg 92%
    02:00 +4°C° 0 mm 2 mps 724 mmHg 91%
    03:00 +4°C° 0 mm 2 mps 724 mmHg 91%
    04:00 +4°C° 0 mm 2 mps 723 mmHg 91%
    05:00 +4°C° 0 mm 2 mps 723 mmHg 90%
    06:00 +3°C° 0 mm 2 mps 723 mmHg 90%
    07:00 +3°C° 0 mm 2 mps 723 mmHg 91%
    08:00 +5°C° 0 mm 1 mps 722 mmHg 89%
    09:00 +6°C° 0 mm 1 mps 722 mmHg 86%
    10:00 +6°C° 0 mm 1 mps 722 mmHg 84%
    11:00 +7°C° 0 mm 1 mps 721 mmHg 80%
    12:00 +8°C° 0 mm 1 mps 720 mmHg 77%
    13:00 +8°C° 0 mm 2 mps 720 mmHg 72%
    14:00 +7°C° 0 mm 2 mps 719 mmHg 75%
    15:00 +7°C° 0 mm 1 mps 719 mmHg 79%
    16:00 +6°C° 0 mm 1 mps 719 mmHg 82%
    17:00 +6°C° 0 mm 1 mps 719 mmHg 80%
    18:00 +6°C° 0 mm 1 mps 718 mmHg 78%
    19:00 +5°C° 0 mm 1 mps 718 mmHg 76%
    20:00 +5°C° 0 mm 1 mps 718 mmHg 76%
    21:00 +5°C° 0 mm 1 mps 717 mmHg 75%
    22:00 +5°C° 0 mm 1 mps 717 mmHg 75%
    23:00 +5°C° 0 mm 1 mps 717 mmHg 74%

    Tomorrow, 9 December, Monday

    Time Temperature Precipitation Wind Pressure Humidity
    00:00 +5°C° 0 mm 2 mps 717 mmHg 73%
    01:00 +5°C° 0 mm 2 mps 717 mmHg 71%
    02:00 +5°C° 0 mm 2 mps 717 mmHg 75%
    03:00 +4°C° 0 mm 3 mps 717 mmHg 78%
    04:00 +5°C° 0 mm 3 mps 716 mmHg 81%
    05:00 +4°C° 0.3 mm 3 mps 717 mmHg 82%
    06:00 +4°C° 0.3 mm 4 mps 717 mmHg 83%
    07:00 +4°C° 0.3 mm 4 mps 717 mmHg 84%
    08:00 +4°C° 0.1 mm 4 mps 717 mmHg 84%
    09:00 +4°C° 0.1 mm 4 mps 717 mmHg 84%
    10:00 +4°C° 0.1 mm 4 mps 717 mmHg 85%
    11:00 +4°C° 0.1 mm 3 mps 716 mmHg 84%
    12:00 +4°C° 0.1 mm 3 mps 716 mmHg 83%
    13:00 +6°C° 0.1 mm 2 mps 715 mmHg 83%
    14:00 +5°C° 0 mm 2 mps 715 mmHg 84%
    15:00 +6°C° 0 mm 1 mps 715 mmHg 85%
    16:00 +6°C° 0 mm 1 mps 715 mmHg 87%
    17:00 +5°C° 0.1 mm 1 mps 715 mmHg 88%
    18:00 +5°C° 0.1 mm 1 mps 716 mmHg 89%
    19:00 +5°C° 0.1 mm 1 mps 716 mmHg 90%
    20:00 +3°C° 0.2 mm 3 mps 717 mmHg 90%
    21:00 +3°C° 0.2 mm 4 mps 717 mmHg 91%
    22:00 +2°C° 0.2 mm 6 mps 718 mmHg 92%
    23:00 +2°C° 0.6 mm 6 mps 719 mmHg 91%

    Day after tomorrow, 10 December, Tuesday

    Time Temperature Precipitation Wind Pressure Humidity
    00:00 +2°C° 0.6 mm 6 mps 720 mmHg 90%
    01:00 +2°C° 0.6 mm 6 mps 720 mmHg 89%
    02:00 +1°C° 0.2 mm 6 mps 721 mmHg 88%
    03:00 +1°C° 0.2 mm 6 mps 722 mmHg 87%
    04:00 -1°C° 0.2 mm 6 mps 723 mmHg 85%
    05:00 -1°C° 0.1 mm 6 mps 724 mmHg 85%
    06:00 0°C° 0.1 mm 5 mps 725 mmHg 86%
    07:00 -1°C° 0.1 mm 5 mps 726 mmHg 86%
    08:00 -2°C° 0.1 mm 6 mps 727 mmHg 84%
    09:00 -2°C° 0.1 mm 6 mps 727 mmHg 83%
    10:00 -1°C° 0.1 mm 7 mps 728 mmHg 81%
    11:00 -1°C° 0.1 mm 6 mps 728 mmHg 80%
    12:00 -1°C° 0.1 mm 6 mps 728 mmHg 78%
    13:00 -1°C° 0.1 mm 6 mps 728 mmHg 76%
    14:00 0°C° 0.1 mm 5 mps 728 mmHg 78%
    15:00 -1°C° 0.1 mm 5 mps 728 mmHg 79%
    16:00 -1°C° 0.1 mm 4 mps 728 mmHg 81%
    17:00 -1°C° 0 mm 3 mps 729 mmHg 83%
    18:00 -1°C° 0 mm 2 mps 729 mmHg 86%
    19:00 -2°C° 0 mm 2 mps 729 mmHg 88%
    20:00 -2°C° 0 mm 2 mps 729 mmHg 88%
    21:00 0°C° 0 mm 1 mps 729 mmHg 88%
    22:00 -1°C° 0 mm 1 mps 729 mmHg 88%
    23:00 -1°C° 0 mm 1 mps 728 mmHg 86%

    11 December, Wednesday

    Time Temperature Precipitation Wind Pressure Humidity
    00:00 -1°C° 0 mm 1 mps 728 mmHg 85%
    01:00 -1°C° 0 mm 1 mps 727 mmHg 84%
    02:00 -1°C° 0 mm 1 mps 727 mmHg 83%
    03:00 -1°C° 0 mm 1 mps 726 mmHg 83%
    04:00 -1°C° 0 mm 1 mps 725 mmHg 82%
    05:00 -1°C° 0 mm 1 mps 725 mmHg 81%
    06:00 -1°C° 0 mm 1 mps 724 mmHg 79%
    07:00 -2°C° 0 mm 1 mps 724 mmHg 78%
    08:00 -1°C° 0 mm 1 mps 723 mmHg 73%
    09:00 -2°C° 0 mm 2 mps 723 mmHg 69%
    10:00 -1°C° 0 mm 2 mps 722 mmHg 64%
    11:00 -1°C° 0 mm 2 mps 721 mmHg 61%
    12:00 +1°C° 0 mm 2 mps 720 mmHg 58%
    13:00 +2°C° 0 mm 2 mps 719 mmHg 55%
    14:00 +1°C° 0 mm 2 mps 719 mmHg 59%
    15:00 +1°C° 0 mm 1 mps 718 mmHg 63%
    16:00 +1°C° 0 mm 1 mps 717 mmHg 68%
    17:00 +1°C° 0 mm 1 mps 717 mmHg 68%
    18:00 0°C° 0 mm 1 mps 717 mmHg 68%
    19:00 0°C° 0 mm 1 mps 717 mmHg 68%
    20:00 +1°C° 0 mm 1 mps 718 mmHg 69%
    21:00 +1°C° 0 mm 1 mps 718 mmHg 70%
    22:00 +2°C° 0 mm 1 mps 718 mmHg 70%
    23:00 +2°C° 0.2 mm 1 mps 718 mmHg 78%

    12 December, Thursday

    Time Temperature Precipitation Wind Pressure Humidity
    00:00 +2°C° 0.2 mm 1 mps 717 mmHg 85%
    01:00 +2°C° 0.2 mm 1 mps 717 mmHg 92%
    02:00 +3°C° 0.1 mm 1 mps 717 mmHg 93%
    03:00 +2°C° 0.1 mm 2 mps 717 mmHg 93%
    04:00 +2°C° 0.1 mm 2 mps 717 mmHg 94%
    05:00 +1°C° 0.1 mm 3 mps 717 mmHg 94%
    06:00 0°C° 0.1 mm 3 mps 717 mmHg 95%
    07:00 0°C° 0.1 mm 3 mps 717 mmHg 96%
    08:00 -1°C° 0.2 mm 4 mps 718 mmHg 90%
    09:00 0°C° 0.2 mm 5 mps 719 mmHg 85%
    10:00 0°C° 0.2 mm 5 mps 719 mmHg 79%
    11:00 0°C° 0 mm 5 mps 719 mmHg 78%
    12:00 +1°C° 0 mm 6 mps 719 mmHg 77%
    13:00 +1°C° 0 mm 6 mps 719 mmHg 75%
    14:00 0°C° 0 mm 5 mps 719 mmHg 78%
    15:00 -1°C° 0 mm 4 mps 719 mmHg 80%
    16:00 +1°C° 0 mm 2 mps 719 mmHg 82%
    17:00 -1°C° 0 mm 2 mps 719 mmHg 83%
    18:00 -1°C° 0 mm 2 mps 719 mmHg 84%
    19:00 -2°C° 0 mm 2 mps 719 mmHg 85%
    20:00 -2°C° 0 mm 2 mps 719 mmHg 84%
    21:00 -2°C° 0 mm 2 mps 718 mmHg 83%
    22:00 -3°C° 0 mm 2 mps 717 mmHg 82%
    23:00 -3°C° 0 mm 2 mps 716 mmHg 80%

    13 December, Friday

    Time Temperature Precipitation Wind Pressure Humidity
    00:00 -3°C° 0 mm 2 mps 715 mmHg 79%
    01:00 -3°C° 0 mm 2 mps 714 mmHg 77%
    02:00 -4°C° 0 mm 3 mps 713 mmHg 75%
    03:00 -4°C° 0 mm 3 mps 711 mmHg 72%
    04:00 -2°C° 0 mm 3 mps 710 mmHg 70%
    05:00 -2°C° 0.1 mm 2 mps 709 mmHg 74%
    06:00 -2°C° 0.1 mm 2 mps 708 mmHg 77%
    07:00 -2°C° 0.1 mm 2 mps 707 mmHg 80%
    08:00 -2°C° 0.5 mm 2 mps 707 mmHg 84%
    09:00 -1°C° 0.5 mm 2 mps 707 mmHg 87%
    10:00 -1°C° 0.5 mm 3 mps 707 mmHg 91%
    11:00 0°C° 1 mm 3 mps 707 mmHg 92%
    12:00 -1°C° 1 mm 4 mps 707 mmHg 93%
    13:00 0°C° 1 mm 4 mps 706 mmHg 94%
    14:00 0°C° 0.6 mm 4 mps 707 mmHg 94%
    15:00 0°C° 0.6 mm 5 mps 707 mmHg 95%
    16:00 0°C° 0.6 mm 5 mps 707 mmHg 95%
    17:00 0°C° 0.3 mm 5 mps 708 mmHg 93%
    18:00 0°C° 0.3 mm 5 mps 709 mmHg 91%
    19:00 0°C° 0.3 mm 4 mps 709 mmHg 89%
    20:00 0°C° 0.6 mm 5 mps 709 mmHg 91%
    21:00 -1°C° 0.6 mm 5 mps 710 mmHg 93%
    22:00 -2°C° 0.6 mm 6 mps 710 mmHg 96%
    23:00 -2°C° 0.6 mm 6 mps 710 mmHg 94%
    Show more